Location: Beadle
(51.4667°N, 109.0000°W)
Time: 05:16:28
(UTC+00:00)

Envisat - Pass Details

Date: 22 January 2022
Orbit: 764 x 765 km, 98.2° (Epoch: 25 May)

Event Time Altitude Azimuth Distance (km) Brightness Sun altitude
Rises 11:45:08 0° 19° (NNE) 3,244 6.6 -31.1°
Reaches altitude 10° 11:47:34 10° 26° (NNE) 2,313 5.8 -30.7°
Maximum altitude 11:52:26 44° 98° (E) 1,058 4.0 -30.0°
Drops below altitude 10° 11:57:15 10° 170° (S) 2,297 5.5 -29.2°
Sets 11:59:39 0° 177° (S) 3,219 6.2 -28.8°
